Hourly Data Report for June 08, 2021

TOBERMORY RCS
ONTARIO
Current Station Operator: ECCC - MSC

45°14'00.000" N
81°38'00.000" W
213.50 m
6128330
71767
TTR

Download Data

Hourly Data (June 2021)
Hourly Data Report for June 8, 2021
TIME
LST
Temp Definition
°C
Dew Point Definition
°C
Rel Hum Definition
%
Precip. Amount Definition
mm

Wind Dir Definition
10's deg

Wind Spd Definition
km/h
Visibility Definition
km
Stn Press Definition
kPa
Hmdx Definition


Wind Chill Definition


Weather Definition


00:00 16.6 15.9 96 0.0 20 9   99.00     LegendNANA
01:00 16.2 15.8 97 0.0 19 6   99.04     LegendNANA
02:00 17.3 17.0 98 0.0 21 8   99.04     LegendNANA
03:00 17.0 16.7 98 0.0 21 8   99.02     LegendNANA
04:00 16.0 15.7 98 0.0 21 7   99.02     LegendNANA
05:00 16.2 15.9 99 0.0 21 4   99.05     LegendNANA
06:00 15.6 15.4 99 0.0 22 5   99.11     LegendNANA
07:00 16.1 15.9 99 0.0 18 4   99.14     LegendNANA
08:00 15.9 15.3 96 0.0 16 7   99.16     LegendNANA
09:00 16.4 14.6 89 0.0 18 7   99.23     LegendNANA
10:00 19.4 16.9 86 0.0 14 3   99.25     LegendNANA
11:00 23.4 18.3 73 0.0 17 6   99.24 30   LegendNANA
12:00 22.7 18.8 79 0.0 18 7   99.22 29   LegendNANA
13:00 24.2 19.7 76 0.0 19 9   99.16 32   LegendNANA
14:00 23.3 18.1 73 0.0 18 10   99.12 29   LegendNANA
15:00 25.3 20.0 73 0.0 19 9   99.04 33   LegendNANA
16:00 23.7 18.4 72 0.0 24 8   99.18 30   LegendNANA
17:00 23.0 18.2 74 0.0 19 6   99.10 29   LegendNANA
18:00 22.1 17.2 74 0.0 21 6   99.05 28   LegendNANA
19:00 17.3 16.5 95 0.0 18 7   98.99     LegendNANA
20:00 17.6 16.8 95 0.0 30 5   99.15     LegendNANA
21:00 16.0 15.5 96 0.0 32 6   99.26     LegendNANA
22:00 16.3 16.0 98 0.0   0   99.19     LegendNANA
23:00 15.9 15.4 97 0.0   0   99.19     LegendNANA

Notes on Data Quality.

Legend

  • E = Estimated
  • M = Missing
  • NA = Not Available*
  • [empty] = Indicates an unobserved value
Date modified: